Retour au catalogue

STARLINK-36186

ActifCommunicationsVLEO
NORAD 67165·PAYLOAD·🇺🇸 United States

Lancé Dec 17, 2025 depuis Cape Canaveral Space Force Station

Loading…

Prochains Passages (prochaines 24 heures)

TLE

FraisSource: CelesTrak SupGP

Époque: Sep 15, 2026, 04:04 UTC

1 67165C 25303C   26258.16993056  .00025923  00000+0  93869-3 0  2586
2 67165  43.0016 320.3139 0001398 259.0660 236.4616 15.27573427    13

Suivez STARLINK-36186 en temps réel avec AllMySat

Download on the App Store